This is the latest recevied weather packets stored in our database for station/object DB0NLS-15. If no packets are shown the sender has not sent any weather packets the latest 10 day(s).
| Time | Temp. | Humidity | Pressure | Rain* | Wind** | Luminosity | Snow |
|---|---|---|---|---|---|---|---|
| 1777472156 | 12.78° C | 29% | 1017.1 hPa | 0 mm | - | - | - |
| 1777471553 | 12.78° C | 29% | 1017.2 hPa | 0 mm | - | - | - |
| 1777470951 | 12.78° C | 30% | 1017.2 hPa | 0 mm | - | - | - |
| 1777470348 | 12.22° C | 30% | 1017.2 hPa | 0 mm | - | - | - |
| 1777469745 | 12.78° C | 29% | 1017.1 hPa | 0 mm | - | - | - |
| 1777469143 | 12.22° C | 30% | 1017.1 hPa | 0 mm | - | - | - |
| 1777468540 | 12.22° C | 30% | 1017.1 hPa | 0 mm | - | - | - |
| 1777467937 | 12.22° C | 30% | 1017.1 hPa | 0 mm | - | - | - |
| 1777467333 | 12.22° C | 30% | 1017.2 hPa | 0 mm | - | - | - |
| 1777466731 | 11.67° C | 30% | 1017.4 hPa | 0 mm | - | - | - |
| 1777466128 | 11.67° C | 31% | 1017.2 hPa | 0 mm | - | - | - |
| 1777465525 | 11.67° C | 30% | 1017.4 hPa | 0 mm | - | - | - |
| 1777464923 | 11.67° C | 30% | 1017.3 hPa | 0 mm | - | - | - |
| 1777464320 | 11.67° C | 31% | 1017.2 hPa | 0 mm | - | - | - |
| 1777463718 | 11.67° C | 30% | 1017.3 hPa | 0 mm | - | - | - |
| 1777463115 | 11.11° C | 30% | 1017.3 hPa | 0 mm | - | - | - |
| 1777462572 | 11.67° C | 30% | 1017.4 hPa | 0 mm | - | - | - |
| 1777461970 | 11.11° C | 31% | 1017.4 hPa | 0 mm | - | - | - |
| 1777461367 | 11.11° C | 31% | 1017.5 hPa | 0 mm | - | - | - |
| 1777460765 | 10.56° C | 31% | 1017.5 hPa | 0 mm | - | - | - |
| 1777460162 | 10.56° C | 31% | 1017.5 hPa | 0 mm | - | - | - |
| 1777459559 | 10.56° C | 31% | 1017.5 hPa | 0 mm | - | - | - |
| 1777458957 | 10.56° C | 32% | 1017.4 hPa | 0 mm | - | - | - |
| 1777458354 | 10.56° C | 31% | 1017.4 hPa | 0 mm | - | - | - |
| 1777457752 | 10.56° C | 32% | 1017.5 hPa | 0 mm | - | - | - |
* Rain latest hour (hover to see other rain measurements)
** Current wind speed in m/s (hover to see current wind gust speed)